Regional Weather Roundup
Issued by NWS

Home | Current Version | Previous Version | Text Only | Print | Product List | Glossary On
Versions: 1 2 3 4 5 6 7 8 9 10 11 12 13 14 15 16 17 18 19 20 21 22 23 24 25 26 27 28 29 30 31 32 33 34 35 36 37 38 39 40 41 42 43 44 45 46 47 48 49
000
ASUS45 KSLC 291610
RWRUT

UTAH REGIONAL WEATHER ROUNDUP
NATIONAL WEATHER SERVICE SALT LAKE CITY UT
900 AM MST MON DEC 29 2014

UTZ001>011-023>025-291700-

NORTHERN UTAH

CITY           SKY/WX    TMP DP  RH WIND       PRES   REMARKS
BRIGHAM CITY   CLOUDY    21  18  88 CALM      30.06R
DUGWAY         MOCLDY    23  23 100 CALM      30.08R FOG
HILL AFB       LGT SNOW  23  23 100 N3        30.03R
LOGAN          CLOUDY    18  15  88 E3        30.07R
OGDEN          CLOUDY    23  22  96 N5        30.03S FOG     WCI  17
PROVO AIRPORT  SNOW      23  21  93 CALM      30.04R VSB 1/2
SALT LAKE CITY FLURRIES  25  24  96 N6        30.05R WCI  18
VERNAL         PTSUNNY   21   9  59 NE7       30.03R WCI  12
WENDOVER       PTCLDY    25  12  58 N3        30.07R
HEBER CITY     CLOUDY    18  18 100 CALM      29.99R
WEST JORDAN    CLOUDY    25  25 100 NW3       30.04R

$$

UTZ012>022-026-027-291700-

SOUTHERN/CENTRAL UTAH

CITY           SKY/WX    TMP DP  RH WIND       PRES   REMARKS
BLANDING       MOSUNNY   18  12  79 CALM      30.06S
BRYCE CANYON   LGT SNOW  18  13  80 NW12      29.95R WCI   5
CEDAR CITY     PTSUNNY   10   4  76 S5        30.03R WCI   2
DELTA          CLOUDY    24  23  98 S5        30.06R WCI  18
MILFORD        FLURRIES  15  12  88 S6        30.06R WCI   6
MOAB/CYNLANDS  CLOUDY    21  19  92 CALM      30.01R
PRICE          FOG       17  14  88 N5        29.97R VSB 1/4 WCI  10
ST GEORGE      PTSUNNY   23   9  54 CALM      30.16R
KANAB          SUNNY     21  12  68 N3        30.11R

$$

REGIONAL REPORTS     COLORADO/ARIZONA

CITY           SKY/WX    TMP DP  RH WIND       PRES   REMARKS
CRAIG, CO      LGT SNOW  13   8  81 CALM      30.00R
GRAND JUNCTION LGT SNOW  22  21  96 CALM      30.01R VSB 1
RIFLE          CLOUDY    17  14  88 CALM      29.99R FOG
MONTROSE       CLOUDY    21  18  88 NW5       30.00R WCI  15
CORTEZ         SUNNY     15  10  80 SW3       30.00R
PAGE, AZ       SUNNY     31  11  43 SW3       30.03R
GRAND CANYON   SUNNY     24  12  60 SW9       30.03S WCI  14
KINGMAN        SUNNY     30  14  51 CALM      30.12R
FLAGSTAFF      SUNNY     34   8  33 W16G28    30.02S WCI  24

$$

REGIONAL REPORTS    NEVADA/IDAHO/WYOMING

CITY           SKY/WX    TMP DP  RH WIND       PRES   REMARKS
LAS VEGAS, NV  SUNNY     33  15  47 CALM      30.10R
ELY            CLOUDY    15  12  88 SE5       30.04R WCI   8
ELKO           MOCLDY    11   8  88 W6        30.05S WCI   1
POCATELLO, ID  CLOUDY    18  14  84 NE15      30.09R WCI   4
BURLEY         CLOUDY    22  17  81 E9        30.08R WCI  12
EVANSTON, WY   CLOUDY     9   4  80 E16       29.96R WCI  -8
ROCK SPRINGS   MIX PCPN   6   2  83 NE26      30.04R FOG     WCI -16

$$


USA.gov is the U.S. government's official web portal to all federal, state and local government web resources and services.